Regional Weather Roundup
Issued by NWS

Home | Current Version | Previous Version | Graphics & Text | Print | Product List | Glossary On
Versions: 1 2 3 4 5 6 7 8 9 10 11 12 13 14 15 16 17 18 19 20 21 22 23 24 25 26 27 28 29 30 31 32 33 34 35 36 37 38 39 40 41 42 43 44 45 46 47 48 49 50
000
ASUS43 KIND 200809
RWRIN

WEATHER ROUNDUP FOR INDIANA
NATIONAL WEATHER SERVICE INDIANAPOLIS IN
300 AM EST MON NOV 20 2017

NOTE: "FAIR" INDICATES FEW OR NO CLOUDS BELOW 12,000 FEET WITH NO
SIGNIFICANT WEATHER AND/OR OBSTRUCTIONS TO VISIBILITY.

* - STATION DOES NOT REPORT WEATHER SUCH AS PRECIPITATION OR FOG.

+ - STATION NOT QUALITY CONTROLLED BY THE NATIONAL WEATHER SERVICE.
    USE DATA WITH CAUTION...ESPECIALLY DEWPOINT AND RELATIVE
    HUMIDITY OBSERVATIONS.

INZ001>003-010>013-019-020-200900-
NORTHWEST INDIANA

CITY           SKY/WX    TMP DP  RH WIND       PRES   REMARKS
GARY /AIRPORT/ PTCLDY    33  22  64 SW7       30.05S WCI  26
KNOX *+        CLEAR     28  23  80 S6        30.08S WCI  22
LA PORTE +     PTCLDY    27  22  82 SW8       30.06S WCI  19
MICHIGAN CITY+ CLEAR     30  21  69 SW7       30.05F WCI  23
MONTICELLO +   CLOUDY    28  23  81 S8        30.10F WCI  20
RENSSELAER +   CLOUDY    30  23  74 S9        30.09S WCI  22
VALPARAISO     CLOUDY    29  22  75 S6        30.06F WCI  23

$$

LMZ046-743>745-200900-
SOUTHERN LAKE MICHIGAN

STATION/POSITION TIME  TEMP    WIND        PRES    WAVE
                       AIR SEA DIR/SP/G            HT
                 (UTC) (F)     (DEG/KT/KT) (MB)    (FT)
BURNS HARBOR     0740   33     220/ 11/ 15 1017.6F
MICHIGAN CITY    0740   32     200/ 14/ 16   N/A

$$

INZ004-005-014>016-021>024-200900-
NORTH CENTRAL INDIANA

CITY           SKY/WX    TMP DP  RH WIND       PRES   REMARKS
GOSHEN         CLEAR     27  19  72 SW9       30.06F WCI  18
LOGANSPORT +   CLOUDY    28  23  80 SW10      30.12S WCI  19
PERU/GRISSOM   CLOUDY    27  24  87 SW10      30.10F WCI  17
ROCHESTER +    CLEAR     30  27  86 SW7       30.10R WCI  23
SOUTH BEND     CLEAR     25  22  88 SW9       30.06S WCI  15
WARSAW +       CLEAR     28  21  74 SW5       30.08S WCI  23

$$

INZ006>009-017-018-025>027-200900-
NORTHEAST INDIANA

CITY           SKY/WX    TMP DP  RH WIND       PRES   REMARKS
AUBURN +       CLEAR     28  21  74 SW3       30.08F
FORT WAYNE     PTCLDY    28  23  81 SW8       30.10F WCI  20
HUNTINGTON +   CLEAR     27  24  89 S6        30.11R WCI  20
KENDALLVILLE + CLEAR     27  21  79 SW7       30.07S WCI  19

$$

INZ028-029-035-036-043>045-051>053-200900-
WEST CENTRAL INDIANA

CITY           SKY/WX    TMP DP  RH WIND       PRES   REMARKS
CRAWFORDSVL +  CLOUDY    27  23  86 S7        30.14S WCI  19
GREENCASTLE +  CLOUDY    27  21  80 CALM      30.16S
LAFAYETTE      CLOUDY    28  23  81 SW6       30.12F WCI  22
TERRE HAUTE    CLOUDY    27  21  78 CALM      30.18R

$$

INZ030>032-037>040-046>048-054>057-064-065-200900-
CENTRAL INDIANA

CITY           SKY/WX    TMP DP  RH WIND       PRES   REMARKS
CP ATTERBURY + CLOUDY    23  21  93 CALM      30.18S
FISHERS *+     CLOUDY    25  25 100 CALM      30.15F
FRANKFORT +    CLOUDY    30  25  80 SW8       30.14S WCI  23
INDIANAPOLIS   CLOUDY    25  20  81 SW5       30.16F WCI  19
-EAGLE CREEK   CLOUDY    26  20  77 S5        30.14F WCI  20
KOKOMO +       CLOUDY    28  23  81 SW8       30.12F WCI  20
MARION +       LGT SNOW  27  24  88 SW7       30.13S WCI  19
MT COMFORT *+  CLOUDY    25  25 100 S5        30.15F WCI  19
SHELBYVILLE    CLOUDY    26  20  77 S5        30.16F WCI  20
ZIONSVILLE +   CLOUDY    26  22  85 S6        30.14S WCI  19

$$

INZ033-034-041-042-049-050-058-059-200900-
EAST CENTRAL INDIANA

CITY           SKY/WX    TMP DP  RH WIND       PRES   REMARKS
MUNCIE         CLEAR     28  21  75 SW6       30.13F WCI  22
RICHMOND +     CLEAR     27  23  86 W8        30.14S WCI  18

$$

INZ060-061-067>069-081>083-085>088-200900-
SOUTHWEST INDIANA

CITY           SKY/WX    TMP DP  RH WIND       PRES   REMARKS
EVANSVILLE     CLEAR     26  24  92 SW6       30.23S WCI  19
HUNTINGBURG +  CLEAR     27  22  81 S5        30.23R WCI  22
WASHINGTON +   CLOUDY    29  22  73 S3        30.21R

$$

INZ062-063-066-070>080-084-089>092-200900-
SOUTH CENTRAL AND SOUTHEAST INDIANA

CITY           SKY/WX    TMP DP  RH WIND       PRES   REMARKS
BEDFORD +      CLOUDY    25  23  93 S3        30.19R
BLOOMINGTON    CLOUDY    25  19  78 CALM      30.17F
MADISON *+     CLEAR     28  23  80 CALM      30.21S
NORTH VERNON + PTCLDY    23  21  93 S6        30.19S WCI  16
SEYMOUR +      CLEAR     25  21  86 S5        30.20S WCI  19

$$





USA.gov is the U.S. government's official web portal to all federal, state and local government web resources and services.